When you browse on this site, cookies collect data to enhance your experience and personalize the content and advertising you see.
Visit our Privacy Policy to learn more. By continuing to use the site, you agree to this use of cookies and data.
  • In Hungary
  • List of Countries
  • For 7 days
  • Water Temperature
  • Weather Map
  • News
  • Weather Widgets
  • user-avatar
    Login

    Hourly Weather Novosarinskiy

    Today, 14 October, Monday

    Time Temperature Precipitation Wind Pressure Humidity
    00:00 +6°C° 0.5 mm 9 mps 719 mmHg 83%
    01:00 +6°C° 0.5 mm 9 mps 718 mmHg 88%
    02:00 +6°C° 1 mm 8 mps 718 mmHg 90%
    03:00 +6°C° 1 mm 8 mps 718 mmHg 92%
    04:00 +8°C° 1 mm 7 mps 717 mmHg 94%
    05:00 +6°C° 0.9 mm 7 mps 717 mmHg 92%
    06:00 +7°C° 0.9 mm 6 mps 717 mmHg 90%
    07:00 +7°C° 0.9 mm 6 mps 717 mmHg 88%
    08:00 +8°C° 0.1 mm 6 mps 717 mmHg 81%
    09:00 +8°C° 0.1 mm 6 mps 718 mmHg 73%
    10:00 +9°C° 0.1 mm 6 mps 718 mmHg 66%
    11:00 +9°C° 0 mm 7 mps 718 mmHg 64%
    12:00 +9°C° 0 mm 8 mps 719 mmHg 62%
    13:00 +10°C° 0 mm 8 mps 719 mmHg 60%
    14:00 +10°C° 0.1 mm 8 mps 719 mmHg 60%
    15:00 +9°C° 0.1 mm 8 mps 720 mmHg 61%
    16:00 +9°C° 0.1 mm 7 mps 720 mmHg 61%
    17:00 +8°C° 0 mm 7 mps 721 mmHg 66%
    18:00 +7°C° 0 mm 6 mps 721 mmHg 72%
    19:00 +5°C° 0 mm 6 mps 721 mmHg 77%
    20:00 +5°C° 0 mm 6 mps 722 mmHg 76%
    21:00 +6°C° 0 mm 5 mps 722 mmHg 76%
    22:00 +6°C° 0 mm 5 mps 722 mmHg 76%
    23:00 +6°C° 0 mm 5 mps 722 mmHg 77%

    Tomorrow, 15 October, Tuesday

    Time Temperature Precipitation Wind Pressure Humidity
    00:00 +5°C° 0 mm 5 mps 723 mmHg 78%
    01:00 +5°C° 0 mm 5 mps 723 mmHg 79%
    02:00 +5°C° 0 mm 5 mps 723 mmHg 82%
    03:00 +5°C° 0 mm 5 mps 723 mmHg 85%
    04:00 +5°C° 0 mm 5 mps 723 mmHg 88%
    05:00 +5°C° 0 mm 5 mps 723 mmHg 90%
    06:00 +3°C° 0 mm 5 mps 723 mmHg 92%
    07:00 +3°C° 0 mm 5 mps 723 mmHg 93%
    08:00 +5°C° 0.1 mm 5 mps 722 mmHg 91%
    09:00 +5°C° 0.1 mm 6 mps 722 mmHg 88%
    10:00 +5°C° 0.1 mm 6 mps 722 mmHg 85%
    11:00 +6°C° 1.1 mm 7 mps 721 mmHg 83%
    12:00 +6°C° 1.1 mm 8 mps 720 mmHg 81%
    13:00 +7°C° 1.1 mm 9 mps 720 mmHg 79%
    14:00 +8°C° 0.1 mm 10 mps 719 mmHg 78%
    15:00 +11°C° 0.1 mm 10 mps 718 mmHg 77%
    16:00 +12°C° 0.1 mm 11 mps 718 mmHg 75%
    17:00 +13°C° 0.3 mm 11 mps 717 mmHg 75%
    18:00 +13°C° 0.3 mm 10 mps 717 mmHg 75%
    19:00 +13°C° 0.3 mm 10 mps 717 mmHg 74%
    20:00 +12°C° 0 mm 9 mps 717 mmHg 75%
    21:00 +11°C° 0 mm 9 mps 717 mmHg 76%
    22:00 +11°C° 0 mm 8 mps 717 mmHg 77%
    23:00 +10°C° 0 mm 8 mps 717 mmHg 80%

    Day after tomorrow, 16 October, Wednesday

    Time Temperature Precipitation Wind Pressure Humidity
    00:00 +9°C° 0 mm 8 mps 717 mmHg 83%
    01:00 +9°C° 0 mm 8 mps 717 mmHg 86%
    02:00 +6°C° 0 mm 7 mps 718 mmHg 84%
    03:00 +5°C° 0 mm 7 mps 718 mmHg 83%
    04:00 +4°C° 0 mm 6 mps 719 mmHg 81%
    05:00 +3°C° 0 mm 5 mps 719 mmHg 80%
    06:00 +4°C° 0 mm 4 mps 720 mmHg 79%
    07:00 +3°C° 0 mm 3 mps 720 mmHg 78%
    08:00 +4°C° 0 mm 4 mps 721 mmHg 75%
    09:00 +4°C° 0 mm 4 mps 721 mmHg 73%
    10:00 +5°C° 0 mm 5 mps 722 mmHg 70%
    11:00 +4°C° 0 mm 6 mps 722 mmHg 66%
    12:00 +5°C° 0 mm 6 mps 723 mmHg 62%
    13:00 +5°C° 0 mm 7 mps 723 mmHg 58%
    14:00 +4°C° 0 mm 7 mps 724 mmHg 58%
    15:00 +4°C° 0 mm 7 mps 724 mmHg 58%
    16:00 +3°C° 0 mm 6 mps 724 mmHg 59%
    17:00 +2°C° 0 mm 6 mps 725 mmHg 63%
    18:00 +2°C° 0 mm 5 mps 725 mmHg 66%
    19:00 +1°C° 0 mm 5 mps 726 mmHg 70%
    20:00 +1°C° 0 mm 4 mps 726 mmHg 73%
    21:00 0°C° 0 mm 4 mps 727 mmHg 76%
    22:00 0°C° 0 mm 3 mps 727 mmHg 79%
    23:00 0°C° 0 mm 3 mps 727 mmHg 80%

    17 October, Thursday

    Time Temperature Precipitation Wind Pressure Humidity
    00:00 -1°C° 0 mm 3 mps 728 mmHg 81%
    01:00 -1°C° 0 mm 3 mps 728 mmHg 82%
    02:00 -1°C° 0 mm 2 mps 728 mmHg 83%
    03:00 -2°C° 0 mm 2 mps 728 mmHg 84%
    04:00 -2°C° 0 mm 2 mps 729 mmHg 85%
    05:00 -2°C° 0 mm 2 mps 729 mmHg 84%
    06:00 -2°C° 0 mm 2 mps 729 mmHg 84%
    07:00 -2°C° 0 mm 2 mps 730 mmHg 84%
    08:00 -1°C° 0 mm 2 mps 730 mmHg 77%
    09:00 0°C° 0 mm 3 mps 730 mmHg 70%
    10:00 +1°C° 0 mm 3 mps 730 mmHg 62%
    11:00 +2°C° 0 mm 3 mps 730 mmHg 59%
    12:00 +3°C° 0 mm 3 mps 730 mmHg 57%
    13:00 +4°C° 0 mm 4 mps 730 mmHg 54%
    14:00 +4°C° 0 mm 4 mps 730 mmHg 55%
    15:00 +4°C° 0 mm 4 mps 730 mmHg 56%
    16:00 +4°C° 0 mm 4 mps 730 mmHg 57%
    17:00 +3°C° 0 mm 3 mps 729 mmHg 61%
    18:00 +3°C° 0 mm 2 mps 729 mmHg 64%
    19:00 +3°C° 0 mm 2 mps 729 mmHg 67%
    20:00 +3°C° 0 mm 2 mps 729 mmHg 67%
    21:00 +3°C° 0 mm 2 mps 729 mmHg 67%
    22:00 +2°C° 0 mm 3 mps 729 mmHg 66%
    23:00 +2°C° 0 mm 3 mps 728 mmHg 66%

    18 October, Friday

    Time Temperature Precipitation Wind Pressure Humidity
    00:00 +2°C° 0 mm 3 mps 728 mmHg 65%
    01:00 +1°C° 0 mm 4 mps 727 mmHg 65%
    02:00 +1°C° 0 mm 4 mps 727 mmHg 63%
    03:00 +1°C° 0 mm 4 mps 726 mmHg 61%
    04:00 +1°C° 0 mm 5 mps 726 mmHg 59%
    05:00 +1°C° 0 mm 5 mps 725 mmHg 59%
    06:00 +1°C° 0 mm 6 mps 725 mmHg 59%
    07:00 +1°C° 0 mm 6 mps 724 mmHg 60%
    08:00 +3°C° 0 mm 7 mps 724 mmHg 57%
    09:00 +4°C° 0 mm 8 mps 723 mmHg 54%
    10:00 +5°C° 0 mm 9 mps 723 mmHg 52%
    11:00 +6°C° 0 mm 9 mps 722 mmHg 50%
    12:00 +7°C° 0 mm 9 mps 722 mmHg 48%
    13:00 +8°C° 0 mm 9 mps 721 mmHg 47%
    14:00 +8°C° 0 mm 9 mps 720 mmHg 48%
    15:00 +9°C° 0 mm 8 mps 720 mmHg 48%
    16:00 +9°C° 0 mm 8 mps 719 mmHg 49%
    17:00 +8°C° 0 mm 7 mps 719 mmHg 50%
    18:00 +8°C° 0 mm 7 mps 719 mmHg 50%
    19:00 +6°C° 0 mm 7 mps 719 mmHg 51%
    20:00 +5°C° 0.2 mm 7 mps 719 mmHg 59%
    21:00 +3°C° 0.2 mm 7 mps 719 mmHg 68%
    22:00 0°C° 0.2 mm 7 mps 719 mmHg 77%
    23:00 -1°C° 0 mm 7 mps 719 mmHg 75%

    19 October, Saturday

    Time Temperature Precipitation Wind Pressure Humidity
    00:00 -2°C° 0 mm 7 mps 720 mmHg 73%
    01:00 -4°C° 0 mm 7 mps 720 mmHg 71%
    02:00 -4°C° 0 mm 7 mps 720 mmHg 71%
    03:00 -4°C° 0 mm 7 mps 721 mmHg 72%
    04:00 -4°C° 0 mm 7 mps 721 mmHg 72%
    05:00 -6°C° 0 mm 7 mps 722 mmHg 72%
    06:00 -6°C° 0 mm 7 mps 722 mmHg 72%
    07:00 -6°C° 0 mm 7 mps 723 mmHg 72%
    08:00 -4°C° 0 mm 7 mps 723 mmHg 67%
    09:00 -3°C° 0 mm 7 mps 724 mmHg 62%
    10:00 -2°C° 0 mm 7 mps 725 mmHg 58%
    11:00 -2°C° 0 mm 7 mps 725 mmHg 55%
    12:00 -1°C° 0 mm 7 mps 726 mmHg 52%
    13:00 +1°C° 0 mm 6 mps 726 mmHg 49%
    14:00 +1°C° 0 mm 6 mps 727 mmHg 51%
    15:00 +1°C° 0 mm 6 mps 727 mmHg 52%
    16:00 -1°C° 0 mm 6 mps 727 mmHg 53%
    17:00 -1°C° 0 mm 5 mps 728 mmHg 58%
    18:00 -2°C° 0 mm 4 mps 728 mmHg 63%
    19:00 -2°C° 0 mm 3 mps 729 mmHg 68%
    20:00 -2°C° 0 mm 3 mps 729 mmHg 69%
    21:00 -3°C° 0 mm 2 mps 730 mmHg 69%
    22:00 -3°C° 0 mm 2 mps 730 mmHg 70%
    23:00 -3°C° 0 mm 2 mps 730 mmHg 69%
    Show more